Cross City, FL

4:32 PM EDT on April 28, 2017 (GMT -0400)
Cross City

Weather History for KCTY - January, 2012

Change the Weather History Date:

Tuesday, January 10, 2012

  Actual Average Record
Temperature  
Mean Temperature 60 °F 53 °F  
Max Temperature 71 °F 66 °F 83 °F (2013)
Min Temperature 48 °F 40 °F 19 °F (2001)
Degree Days  
Heating Degree Days 6 13  
Month to date heating degree days 130  
Since 1 July heating degree days 635  
Cooling Degree Days 0 0  
Month to date cooling degree days 0  
Year to date cooling degree days 0  
Growing Degree Days 10 (Base 50)    
Moisture  
Dew Point 55 °F    
Average Humidity 84    
Maximum Humidity 97    
Minimum Humidity 61    
Precipitation  
Precipitation 0.00 in 0.13 in 0.23 in (2000)
Month to date precipitation 1.24  
Year to date precipitation 1.24  
Sea Level Pressure  
Sea Level Pressure 30.04 in    
Wind  
Wind Speed 1 mph (South)    
Max Wind Speed 14 mph    
Max Gust Speed 21 mph    
T = Trace of Precipitation, MM = Missing Value Source: NWS Daily Summary

Daily Weather History Graph

Daily Weather History Graph

Search for Another Location

Airport or City:

Trip Planner

Search our weather history database for the weather conditions in past years. The results will help you decide how hot, cold, wet, or windy it might be!

Date:

Astronomy

Jan. 10, 2012 Rise Set
Actual Time 7:28 AM EST 5:51 PM EST
Civil Twilight 7:02 AM EST 6:17 PM EST
Nautical Twilight 6:33 AM EST 6:46 PM EST
Astronomical Twilight 6:04 AM EST 7:15 PM EST
Moon 7:31 PM EST (1/10) 8:13 AM EST (1/10)
Length of Visible Light 11h 14m
Length of Day
10h 22m
Full, 98% of the Moon is Illuminated
Jan 10
Full
Jan 16
Last Quarter
Jan 23
New
Jan 30
First Quarter
Feb 7
Full

Hourly Weather History & Observations

Time (EST) Temp. Dew Point Humidity Pressure Visibility Wind Dir Wind Speed Gust Speed Precip Events Conditions
12:53 AM 48.9 °F 48.0 °F 97% 30.11 in - Calm Calm - N/A   Unknown
1:53 AM 50.0 °F 48.0 °F 93% 30.11 in - Calm Calm - N/A   Unknown
2:53 AM 50.0 °F 46.9 °F 89% 30.10 in - Calm Calm - N/A   Unknown
3:53 AM 48.9 °F 48.0 °F 97% 30.09 in - Calm Calm - N/A   Unknown
4:53 AM 48.9 °F 48.0 °F 97% 30.09 in - Calm Calm - N/A   Unknown
5:53 AM 50.0 °F 48.0 °F 93% 30.08 in - Calm Calm - N/A   Unknown
6:53 AM 50.0 °F 48.0 °F 93% 30.08 in - Calm Calm - N/A   Unknown
7:53 AM 52.0 °F 50.0 °F 93% 30.10 in - Calm Calm - N/A   Unknown
8:53 AM 57.0 °F 55.0 °F 93% 30.10 in - Calm Calm - N/A   Unknown
9:53 AM 61.0 °F 55.9 °F 83% 30.10 in - SE 4.6 mph - N/A   Unknown
10:53 AM 64.0 °F 57.0 °F 78% 30.10 in - Calm Calm - N/A   Unknown
11:53 AM 68.0 °F 57.9 °F 70% 30.06 in - Calm Calm - N/A   Unknown
12:53 PM 70.0 °F 57.9 °F 65% 30.03 in - South 4.6 mph - N/A   Unknown
1:53 PM 70.0 °F 59.0 °F 68% 29.99 in - Calm Calm - N/A   Unknown
2:53 PM 71.1 °F 57.0 °F 61% 29.98 in - SSW 5.8 mph - N/A   Unknown
3:53 PM 71.1 °F 57.9 °F 63% 29.99 in - West 3.5 mph - N/A   Unknown
4:53 PM 69.1 °F 60.1 °F 73% 30.00 in - Calm Calm - N/A   Unknown
5:53 PM 64.9 °F 61.0 °F 87% 29.99 in - Calm Calm - N/A   Unknown
6:53 PM 63.0 °F 60.1 °F 90% 30.00 in - Calm Calm - N/A   Unknown
7:53 PM 63.0 °F 60.1 °F 90% 30.00 in - SSE 3.5 mph - N/A   Unknown
8:53 PM 61.0 °F 59.0 °F 93% 30.00 in - Calm Calm - N/A   Unknown
9:53 PM 64.0 °F 57.9 °F 80% 29.97 in - SE 4.6 mph - N/A   Unknown
10:53 PM 64.0 °F 57.9 °F 80% 29.92 in - SSE 11.5 mph - N/A   Unknown
11:53 PM 64.9 °F 59.0 °F 81% 29.88 in - SSE 13.8 mph 20.7 mph N/A   Unknown